Location: Chanteloup
(48.8560°N, 2.7390°E)
Time: 02:12:33
(UTC+00:00)

CENTAUR R/B - Pass Details

Date: 24 October 2021
Orbit: 728 x 1459 km, 63.4° (Epoch: 26 November)

Event Time Altitude Azimuth Distance (km) Brightness Sun altitude
Rises 19:49:37 0° 315° (NW) 4,013 6.6 -31.2°
Reaches altitude 10° 19:52:19 10° 321° (NW) 3,150 5.8 -31.6°
Enters shadow 19:59:44 49° 33° (NNE) 1,674 3.5 -32.8°
